Regional Weather Roundup
Issued by NWS Cleveland, OH

Home | Current Version | Previous Version | Graphics & Text | Print | Product List | Glossary On
Versions: 1 2 3 4 5 6 7 8 9 10 11 12 13 14 15 16 17 18 19 20 21 22 23 24 25 26 27 28 29 30 31 32 33 34 35 36 37 38 39 40 41 42 43 44 45 46 47 48 49 50
000
ASUS41 KCLE 222100
RWRCLE
OHIO REGIONAL WEATHER ROUNDUP
NATIONAL WEATHER SERVICE WILMINGTON, OH
500 PM EDT FRI AUG 22 2014

NOTE: "FAIR" INDICATES FEW OR NO CLOUDS BELOW 12,000 FEET WITH NO
SIGNIFICANT WEATHER AND/OR OBSTRUCTIONS TO VISIBILITY.

OHZ001>008-015>018-024>027-034-035-043-044-222200-
   NORTHWEST OHIO

CITY           SKY/WX    TMP DP  RH WIND       PRES   REMARKS
DEFIANCE       PTSUNNY   84  71  65 E5        29.95F
FINDLAY        LGT RAIN  78  74  87 SW6       29.95S
TOLEDO EXPRESS LGT RAIN  79  73  82 NE6       29.96R
TOLEDO METCALF CLOUDY    79  71  76 E5        29.97R
LIMA           CLOUDY    82  73  74 W9        29.96F
$$

OHZ009>014-019>023-028>033-038-089-222200-
   NORTHEAST OHIO

CITY           SKY/WX    TMP DP  RH WIND       PRES   REMARKS
CLE-HOPKINS    PTSUNNY   80  70  71 N10       29.97S
CLE-LAKEFRONT  MOSUNNY   77  71  82 NE7       29.95S
CUY CO. ARPT   PTSUNNY   81  72  74 N9        29.96F
LORAIN-ELYRIA  MOSUNNY   84  71  65 N9        29.96S
ASHTABULA      MOSUNNY   78  70  76 NW9       29.97F
AKRON-CANTON   PTSUNNY   81  69  67 VRB5      29.95F
WOOSTER        NOT AVBL
MANSFIELD      CLOUDY    80  72  76 NW3       29.97F
YOUNGSTOWN     PTSUNNY   83  69  62 CALM      29.95F
$$

OHZ042-051>053-060>062-070>072-077>081-222200-
  SOUTHWEST OHIO

CITY           SKY/WX    TMP DP  RH WIND       PRES   REMARKS
CINC-COVINGTON CLOUDY    85  74  69 W7        29.98R HX  92
CINC-LUNKEN    CLOUDY    86  74  67 W7        29.96S HX  94
HAMILTON       CLOUDY    85  75  72 W8        29.97S HX  93
DAYTON         NOT AVBL
WRIGHT-PAT AFB NOT AVBL
DAYTON GENERAL PTSUNNY   84  75  74 VRB6      29.97S HX  92
WILMINGTON     PTSUNNY   84  73  69 W6        29.98S HX  90
$$

OHZ036-037-039>041-045>050-054>059-063>069-073>076-082>088-222200-
  CENTRAL AND SOUTHEAST OHIO

CITY           SKY/WX    TMP DP  RH WIND       PRES   REMARKS
COLUMBUS       CLOUDY    83  70  64 S7        29.95F
OSU AIRPORT    CLOUDY    81  71  71 SW6       29.96S
BOLTON FIELD   PTSUNNY   81  72  74 CALM      29.97F
RICKENBACK AFB NOT AVBL
NEWARK         PTSUNNY   81  72  74 SW9       29.95F
MARION         PTSUNNY   79  74  84 SW6       29.96S
LANCASTER      CLOUDY    82  70  66 W8        29.97F
ZANESVILLE     PTSUNNY   81  70  69 SW6       29.96S
NEW PHILLY     PTSUNNY   80  73  79 CALM      29.95F
$$



USA.gov is the U.S. government's official web portal to all federal, state and local government web resources and services.